map of IGS home
IGS - Airport
Location
City:  Ingolstadt, Bavaria, Germany
Name:Manching
ICAO:ETSI
IATA:IGS

Details
Type:Airport (Flugplatz, Airfield)
Use:Military
Latitude:4842'56"N (48.715667)
Longitude:1132'02"E (11.534000)
Elevation:1202 ft (366 m)
Variation:2.99E (WMM2015 magnetic declination)
0.12 annual change
Runways:2
Longest:9646 × 197 ft (2940 × 60 m), paved

Time
Time Zone:UTC+1 (DST+2)
Local Time:

Weather
METAR:ETSI 091054Z 31001KT 9999 BKN040 BKN250 02/M00 Q1032 BLU BLU+ TEMPO BLU

Related Locations
Nearby:
Farthest:CHT: 11925 mi / 19191 km
Waitangi [Tuuta], CIT, NZ

Find:

   beyond  
but within

Other Information
Maps:
NOTAMs:
Links:
Sources:

  
flag of Germany
flag of Bavaria
flag of Ingolstadt
  

Sectional Chart

Flight Planning
at skyvector.com

Satellite Image

Google Maps Satellite view

 

Copyright © 2004-2016 Karl L. Swartz. All rights reserved.
The Great Circle Mapper name and logo are trademarks of the Great Circle Mapper.
All other trademarks mentioned herein belong to their respective owners.
Please see credits for attibutions and further copyright information.

  Follow gcmap on Facebook Follow gcmap on Twitter Follow gcmap on Google+ GCmap on LinkedIn

hCard Microformat

Geo Microformat